Hourly Weather Roundup
Issued by NWS Central Illinois

Home | Current Version | Previous Version | Text Only | Print | Product List | Glossary On
Versions: 1 2 3 4 5 6 7 8 9 10 11 12 13 14 15 16 17 18 19 20 21 22 23 24 25 26 27 28 29 30 31 32 33 34 35 36 37 38 39 40 41 42 43 44 45 46 47 48 49 50
000
NZUS43 KILX 270610
HWRILX

AREA WEATHER ROUNDUP
NATIONAL WEATHER SERVICE, LINCOLN IL
1200 AM CST SAT DEC 27 2014


CITY           SKY/WX    TMP DP  RH WIND       PRES   REMARKS
BLOOMINGTON    LGT RAIN  47  45  93 S23       30.03F FOG
6HR MIN TEMP:  41; 6HR MAX TEMP:  48; 6HR PCP: TRACE;

CHAMPAIGN      CLOUDY    48  43  82 S12       30.05F
6HR MIN TEMP:  44; 6HR MAX TEMP:  48;

DECATUR        LGT RAIN  48  43  82 SW12      30.07R
6HR MIN TEMP:  46; 6HR MAX TEMP:  50; 6HR PCP:  0.01;

FLORA          CLEAR     46  39  76 S9        30.11S
6HR MIN TEMP:  45; 6HR MAX TEMP:  48;

GALESBURG      CLOUDY    46  43  88 SE6       29.96F
JACKSONVILLE   LGT RAIN  49  47  92 S12G18    30.02S
6HR MIN TEMP:  49; 6HR MAX TEMP:  53;

LACON          MOCLDY    44  41  87 SE5       30.00F
6HR MIN TEMP:  41; 6HR MAX TEMP:  47;

LAWRENCEVILLE  MOCLDY    45  39  79 S9        30.14F
6HR MIN TEMP:  44; 6HR MAX TEMP:  48;

LITCHFIELD     DRIZZLE   45  42  89 S13       30.06S
$$


CITY           SKY/WX    TMP DP  RH WIND       PRES   REMARKS
LINCOLN        CLOUDY    48  45  90 S15       30.03F
6HR MIN TEMP:  46; 6HR MAX TEMP:  49;

MACOMB         CLOUDY    47  44  89 S10       29.99S
MATTOON        CLOUDY    47  41  80 S16       30.05F
6HR MIN TEMP:  47; 6HR MAX TEMP:  50;

MT CARMEL AP   MOCLDY    48  37  66 S8        30.13S
OLNEY-NOBLE AP CLOUDY    45  37  76 CALM      30.12R
PARIS          CLOUDY    47  42  84 S10       30.10S
6HR MIN TEMP:  45; 6HR MAX TEMP:  49;

PEORIA         CLOUDY    48  42  80 S10       30.00F
6HR MIN TEMP:  46; 6HR MAX TEMP:  51;

PONTIAC        CLOUDY    46  43  89 S14       30.03S
RANTOUL        CLOUDY    49  45  84 S12G17    30.06S
6HR MIN TEMP:  42; 6HR MAX TEMP:  49;

ROBINSON       MOCLDY    45  39  81 S6        30.13F
6HR MIN TEMP:  44; 6HR MAX TEMP:  48;

SPRINGFIELD    LGT RAIN  48  45  89 S15       30.04S FOG
6HR MIN TEMP:  48; 6HR MAX TEMP:  52; 6HR PCP:  0.08;

TAYLORVILLE    RAIN      45  43  93 S13       30.06S
$$

...REGIONAL REPORTS...


CITY           SKY/WX    TMP DP  RH WIND       PRES   REMARKS
CHICAGO O`HARE CLOUDY    44  41  89 S6        30.01F
KANKAKEE       PTCLDY    44  41  92 S12       30.04F
MOLINE         CLOUDY    47  42  83 SE8       29.93F
MOUNT VERNON   CLOUDY    48  37  66 S10       30.11S
PITTSFIELD     CLOUDY    49  46  89 S12       30.02R
QUINCY         CLOUDY    50  46  86 S14       29.98R
ROCKFORD       CLOUDY    44  40  85 S7        29.99F
$$


CITY           SKY/WX    TMP DP  RH WIND       PRES   REMARKS
BURLINGTON     CLOUDY    50  45  83 S10       29.94F
CEDAR RAPIDS   LGT RAIN  37  37 100 CALM      29.94F FOG
DES MOINES     LGT RAIN  35  33  92 CALM      29.96F FOG
KIRKSVILLE     CLOUDY    44  43  96 CALM      29.96S FOG
OTTUMWA        CLOUDY    37  36  96 W5        29.94F WCI  33
ST LOUIS       LGT RAIN  48  45  87 S8        30.06F FOG
$$


CITY           SKY/WX    TMP DP  RH WIND       PRES   REMARKS
TERRE HAUTE    PTCLDY    46  39  76 S9        30.10F
EVANSVILLE     CLOUDY    50  37  61 S9        30.16F
INDIANAPOLIS   CLOUDY    46  37  71 S12       30.10F
LAFAYETTE      CLOUDY    47  41  80 S9        30.08F
MADISON        CLOUDY    35  32  88 CALM      29.96F
MILWAUKEE      CLOUDY    43  38  82 S6        29.99F
$$





USA.gov is the U.S. government's official web portal to all federal, state and local government web resources and services.